Regional Weather Roundup
Issued by NWS

Home | Current Version | Previous Version | Graphics & Text | Print | Product List | Glossary On
Versions: 1 2 3 4 5 6 7 8 9 10 11 12 13 14 15 16 17 18 19 20 21 22 23 24 25 26 27 28 29 30 31 32 33 34 35 36 37 38 39 40 41 42 43 44 45 46 47 48 49 50
410
ASUS43 KTOP 260059
RWRKS

WEATHER ROUNDUP FOR KANSAS
NATIONAL WEATHER SERVICE GOODLAND KS
800 PM CDT SAT MAR 25 2017

NOTE:  "FAIR" INDICATES FEW OR NO CLOUDS BELOW 12,000 FEET WITH NO
SIGNIFICANT WEATHER AND/OR OBSTRUCTIONS TO VISIBILITY.

KSZ001>006-013>018-027>032-041>047-260200-
NORTHWEST KANSAS

CITY           SKY/WX    TMP DP  RH WIND       PRES   REMARKS
GOODLAND       CLOUDY    50  38  63 E6        29.87F
HAYS             N/A     49  40  71 NE7       29.92S
HILL CITY      CLEAR     46  40  79 SE6       29.92R
RUSSELL        PTCLDY    44  37  76 N5        29.92R
$$

KSZ061>065-074>080-084>089-260200-
SOUTHWEST KANSAS

CITY           SKY/WX    TMP DP  RH WIND       PRES   REMARKS
DODGE CITY     CLEAR     52  40  63 E8        29.89R
ELKHART          N/A     55  30  38 SE7         N/A
GARDEN CITY    CLOUDY    58  32  37 CALM      29.87S
GREAT BEND     CLEAR     47  39  74 E6        29.92S
LIBERAL        CLOUDY    61  23  23 CALM      29.89S
$$

KSZ066>073-081>083-090>101-260200-
SOUTHEAST KANSAS

CITY           SKY/WX    TMP DP  RH WIND       PRES   REMARKS
CHANUTE        CLOUDY    47  45  93 NW9       29.91R
COFFEYVILLE    CLOUDY    48  42  80 W8        29.93R
HUTCHINSON     CLOUDY    45  40  82 N5        29.92S
MEDICINE LODGE   N/A     49  40  71 NE9       29.90S
NEWTON         CLOUDY    43  41  93 NW10      29.93R
PARSONS        CLOUDY    49  43  80 W7        29.93R
WICHITA INTL   CLOUDY    46  41  82 NW8       29.93R
WICHITA JABRA  CLOUDY    45  41  86 N7        29.92R
WINFIELD       CLOUDY    47  41  80 W6        29.95R
$$

KSZ007>012-019>026-033>040-048>060-102>105-260200-
NORTHEAST KANSAS

CITY           SKY/WX    TMP DP  RH WIND       PRES   REMARKS
CONCORDIA      CLOUDY    41  40  96 N9        29.93S
EMPORIA        CLOUDY    45  45 100 NW8       29.91R
LAWRENCE       CLOUDY    46  44  93 NW9       29.90R
MANHATTAN      CLOUDY    45  43  93 N3        29.92S
OLATHE IND     CLOUDY    47  45  93 NW13      29.88R
OLATHE EXE     CLOUDY    47  46  97 NW10      29.87R
SALINA         CLOUDY    45  40  82 N9        29.94R
TOPEKA BILLARD CLOUDY    46  44  93 NW7       29.90R
TOPEKA FORBES  CLOUDY    47  43  86 N12       29.90R
$$




USA.gov is the U.S. government's official web portal to all federal, state and local government web resources and services.